Starlink 33973

operational
NORAD ID: 63894 Int'l Des: 2025-095 Owner: SPXS Country: US Constellation: starlink
LEOCIRCULAR

关于 Starlink 33973

正在加载描述...

实时位置

正在加载3D地球...

即将过境

高度历史

Altitude vs Time

uPlot chart will show altitude changes over time

两行轨道根数

1 63894U 25095E 25340.97858128 .00021352 00000-0 78279-3 0 9992
2 63894 43.0022 339.3861 0000597 272.7227 87.3556 15.27597493 33615
Epoch: Dec 6, 2025 • Age: 14 hours

当前状态

高度 484.9 km
速度 7.62 km/s
星下点 -11.97°S, 43.45°E
发射日期 May 10, 2025
运行时间 0.5 years
类型 internet

技术详情

分类 Payload
质量 575.00 kg
干质量 530.00 kg
总质量 575.00 kg
长度 0.30 m
直径 4.10 m
跨度 29.00 m
形状 Box + pan
制造商 SPXS
平台类型 Starlink V2MO
阶段状态 In Orbit
所有者/国家 SPXS/US

大型星座

Loading constellations...